Weather in Pereleshinskiy

Russia / Voronezh Oblast     51°42′58″N   40°11′58″E
temp.,
°C
wind,
m/s
gust,
m/s
humid.,
%
clouds,
%
prec.,
mm/h
press.,
hPa
HPBL,
m
7 march, sun
sun700:00−10wnw48920 0.0 1019140
03:00−11w47920 0.0 1019139
06:00−11wsw48930 0.0 1018143
09:00−7wsw6129111 0.0 1016515
12:00−4sw8137895 0.0 10141041
15:00−2sw9167098 0.0 10091085
18:00−2sw91769100 0.0 10061028
21:00−2wsw111893100 0.3 10031082
8 march, mon
mon800:00−1wsw101792100 0.4 10031040
03:00−5w5117895 1.1 1004240
06:00−5sw498392 0.0 1004173
09:00−3sw589696 0.4 1004463
12:00−1w6893100 0.7 1004754
15:00−1w6107892 1.1 10051227
18:00−4wnw498790 0.1 1006272
21:00−7wnw348854 0.1 100865
9 march, tue
tue900:00−9nw339522 0.0 100937
03:00−9nnw239355 0.1 101146
06:00−12nnw339261 0.0 101233
09:00−11nnw349344 0.0 1014200
12:00−7nw348774 0.0 1014502
15:00−6nnw358487 0.1 1016678
18:00−8nw359699 0.4 1017213
21:00−11nnw489499 0.6 1019299
10 march, wed
wed1000:00−14nnw349532 0.0 102057
03:00−16nw349523 0.0 102251
06:00−16nw339759 0.0 102356
09:00−15nnw479251 0.0 1025336
12:00−14nnw468414 0.0 1026522
15:00−13n348018 0.0 1026535
18:00−16nne228774 0.0 102720
21:00−18nne239043 0.0 102821
11 march, thu
thu1100:00−20ne22920 0.0 102920
03:00−21ene11900 0.0 103120
06:00−22e12860 0.0 103120
09:00−18se22825 0.0 103283
12:00−14s337616 0.0 1032299
15:00−11s357813 0.0 1031376
18:00−13sse34860 0.0 103041
21:00−14sse46830 0.0 103090